Regional Weather Roundup
Issued by NWS Green Bay, WI

Home | Current Version | Previous Version | Graphics & Text | Print | Product List | Glossary Off
Versions: 1 2 3 4 5 6 7 8 9 10 11 12 13 14 15 16 17 18 19 20 21 22 23 24 25 26 27 28 29 30 31 32 33 34 35 36 37 38 39 40 41 42 43 44 45 46 47 48 49 50

170
ASUS43 KGRB 120400
RWRGRB

NORTH-CENTRAL AND NORTHEAST WISCONSIN REGIONAL WEATHER ROUNDUP
NATIONAL WEATHER SERVICE GREEN BAY WI
1000 PM CST THU FEB 11 2016

WIZ005-009-010>012-018-019-120500-
NORTH CENTRAL WISCONSIN

CITY           SKY/WX    TMP DP  RH WIND       PRES   REMARKS
IRONWOOD       CLOUDY    10   0  61 W14       30.07S WCI  -5
MANITOWISH WTR NOT AVBL
ARBOR VITAE    NOT AVBL
EAGLE RIVER    NOT AVBL
LAND O LAKES   NOT AVBL
RHINELANDER    CLOUDY    10  -3  55 W14       30.07S WCI  -6
PHILLIPS       NOT AVBL
ANTIGO         NOT AVBL
TOMAHAWK       NOT AVBL
MERRILL        NOT AVBL
$$

WIZ013-073-120500-
NORTHEAST WISCONSIN

CITY           SKY/WX    TMP DP  RH WIND       PRES   REMARKS
IRON MOUNTAIN  CLOUDY    14  -4  44 W12       30.05F WCI   0
MARINETTE      CLOUDY    16  -4  41 W8        30.12F WCI   5
$$

WIZ017-030-035>037-045-120500-
CENTRAL WISCONSIN

CITY           SKY/WX    TMP DP  RH WIND       PRES   REMARKS
MEDFORD        NOT AVBL
WAUSAU         CLOUDY    14  -1  51 W13       30.13F WCI   0
MOSINEE        CLOUDY    12   0  57 W9        30.15F WCI   0
MARSHFIELD     CLOUDY    14  -1  51 W9        30.14F WCI   2
WISC RAPIDS    CLOUDY    15  -3  44 W9        30.19F WCI   3
STEVENS POINT  NOT AVBL
WAUPACA        NOT AVBL
SHAWANO        NOT AVBL
CLINTONVILLE   NOT AVBL
WAUTOMA        NOT AVBL
$$

WIZ038-039-048-051-120500-
FOX VALLEY

CITY           SKY/WX    TMP DP  RH WIND       PRES   REMARKS
NWS GREEN BAY  CLOUDY    15   0  51 SW8       30.17F WCI   4
APPLETON       CLOUDY    16  -2  45 SW10      30.15F WCI   3
OSHKOSH        CLOUDY    14   0  53 W5        30.19F WCI   6
FOND DU LAC    CLOUDY    14   1  56 SW7       30.20F WCI   4
$$

WIZ022-050-052-120500-
EAST CENTRAL WISCONSIN

CITY           SKY/WX    TMP DP  RH WIND       PRES   REMARKS
EPHRAIM        NOT AVBL
STURGEON BAY   CLOUDY    14  -2  48 SW14      30.15F WCI  -1
MANITOWOC      NOT AVBL
SHEBOYGAN      CLOUDY    15   0  51 W12       30.19F WCI   2
$$

LMZ563-521-522-541>543-120500-
LAKESHORE

STATION/POSITION TIME  TEMP    WIND        PRES    VSBY  WAVE
                       AIR SEA DIR/SP/G                  HT/PER
                 (UTC) (F)     (DEG/KT/KT) (MB)    (MI)  (FT/S)
SHEBOYGAN LKSHOR 0300   15     230/  8/  9 1024.7F
KEWAUNEE LKSHORE 0300   14                 1021.0
ALGOMA MARINA    0311          270/  7/ 13   N/A
CHAMBERS ISLAND  0300   17     210/ 10/ 18 1020.3
MENOMINEE LKSHOR 0300   16                 1019.7
$$




USA.gov is the U.S. government's official web portal to all federal, state and local government web resources and services.